Regional Weather Roundup
Issued by NWS

Home | Current Version | Previous Version | Text Only | Print | Product List | Glossary Off
Versions: 1 2 3 4 5 6 7 8 9 10 11 12 13 14 15 16 17 18 19 20 21 22 23 24 25 26 27 28 29 30 31 32 33 34 35 36 37 38 39 40 41 42 43 44 45 46 47 48 49 50

000
ASUS43 KBIS 222320
RWRND

NORTH DAKOTA REGIONAL WEATHER ROUNDUP
NATIONAL WEATHER SERVICE BISMARCK ND
600 PM CDT FRI AUG 22 2014

NOTE: "FAIR" INDICATES FEW OR NO CLOUDS BELOW 12,000 FEET WITH NO
SIGNIFICANT WEATHER AND/OR OBSTRUCTIONS TO VISIBILITY.


NDZ001>003-009>011-017-230000-
NORTHWEST NORTH DAKOTA

CITY           SKY/WX    TMP DP  RH WIND       PRES   REMARKS
WILLISTON      CLOUDY    66  55  67 NE12      30.11S
MINOT          CLOUDY    65  61  87 NE6       30.11R
MINOT AFB      CLOUDY    66  60  79 NE9       30.11R
$$

NDZ018>021-031>035-040>046-230000-
SOUTHWEST NORTH DAKOTA

CITY           SKY/WX    TMP DP  RH WIND       PRES   REMARKS
BISMARCK       CLOUDY    69  65  86 E13       30.06R
DICKINSON      PTSUNNY   68  61  78 NE10      30.06S
GARRISON         N/A     67  61  81 NE9       30.09S
HETTINGER ARPT CLOUDY    72  59  63 E12       30.05F
$$

NDZ004>008-012>016-024-026-027-054-230000-
NORTHEAST NORTH DAKOTA

CITY           SKY/WX    TMP DP  RH WIND       PRES   REMARKS
GRAND FORKS    PTSUNNY   73  64  73 N13       30.03S
GRND FRKS AFB  CLOUDY    70  66  86 N12       30.05S
DEVILS LAKE    CLOUDY    68  57  68 NE12G17   30.07R
$$

NDZ022-023-025-028>030-036>039-047>053-230000-
SOUTHEAST NORTH DAKOTA

CITY           SKY/WX    TMP DP  RH WIND       PRES   REMARKS
FARGO          PTSUNNY   74  66  76 N12       30.02S
JAMESTOWN      PTSUNNY   73  64  73 NE9       30.05R
$$




USA.gov is the U.S. government's official web portal to all federal, state and local government web resources and services.